Weather reports worldwide

Advertisment
Tulloch Bridge, United Kingdom (3047): temperature & dewpoint: 15.01.2020 22:00:00 - 21.01.2020 22:00:00 (GMT)Tulloch Bridge, United Kingdom (3047): temperature -20cm & temperature -100cm: 15.01.2020 22:00:00 - 21.01.2020 22:00:00 (GMT)Tulloch Bridge, United Kingdom (3047): wind speed & gusts: 15.01.2020 22:00:00 - 21.01.2020 22:00:00 (GMT)Tulloch Bridge, United Kingdom (3047): wind direction: 15.01.2020 22:00:00 - 21.01.2020 22:00:00 (GMT)Tulloch Bridge, United Kingdom (3047): reduced air pressure: 15.01.2020 22:00:00 - 21.01.2020 22:00:00 (GMT)Tulloch Bridge, United Kingdom (3047): visibility: 15.01.2020 22:00:00 - 21.01.2020 22:00:00 (GMT)Tulloch Bridge, United Kingdom (3047): precipitation: 15.01.2020 22:00:00 - 21.01.2020 22:00:00 (GMT)
Date & Time tt [°C] td [°C] tt -20cm [°C] tt -100cm [°C] ff [km/h] ff [kn] fx [km/h] fx [kn] dd ppp [hPa] vv [km] rr [mm]
21.01.2020 22:00:00 8,1 7,8 - - 5 3 - - NNW 1037,2 1,9 0,0
21.01.2020 21:00:00 8,6 8,0 - - 5 3 - - WNW 1037,1 22 0,0
21.01.2020 20:00:00 8,2 7,9 - - 5 3 - - NW 1037,1 11 0,0
21.01.2020 19:00:00 8,3 7,9 - - 9 5 - - NNW 1037,1 21 0,0
21.01.2020 18:00:00 9,2 8,1 - - 9 5 - - WNW 1036,6 50 0,0
21.01.2020 17:00:00 8,9 8,2 - - 9 5 - - NW 1036,6 3,2 0,0
21.01.2020 16:00:00 9,6 8,0 - - 13 7 - - WNW 1036,3 50 0,0
21.01.2020 15:00:00 9,9 8,2 - - 11 6 - - W 1036,5 50 0,0
21.01.2020 14:00:00 9,5 8,5 - - 5 3 - - W 1037,2 50 0,4
21.01.2020 13:00:00 9,2 8,8 - - 4 2 - - NNW 1037,6 9 0,2
21.01.2020 12:00:00 9,1 8,4 - - 9 5 - - SW 1037,7 14 0,0
21.01.2020 11:00:00 8,6 8,1 - - 18 10 - - SSW 1037,9 23 0,0
21.01.2020 10:00:00 8,4 8,0 - - 15 8 - - SSW 1038,1 4,2 0,2
21.01.2020 09:00:00 8,4 7,9 3,7 3,0 15 8 - - SSW 1037,5 9 0,0
21.01.2020 08:00:00 8,6 7,7 - - 15 8 - - SSW 1037,2 50 0,2
21.01.2020 07:00:00 8,4 7,9 - - 13 7 - - SW 1037,1 4,3 0,0
21.01.2020 06:00:00 8,5 7,7 - - 9 5 - - WSW 1037,2 19 0,0
21.01.2020 05:00:00 9,1 7,3 - - 8 4 - - WSW 1037,1 50 0,0
21.01.2020 04:00:00 9,1 7,5 - - 8 4 - - WSW 1036,8 9 0,0
21.01.2020 03:00:00 8,4 7,1 - - 9 5 - - SSW 1037,2 25 0,0
21.01.2020 02:00:00 8,3 6,6 - - 5 3 - - NW 1037,4 50 0,0
21.01.2020 01:00:00 8,7 6,3 - - 13 7 - - SW 1037,5 50 0,0
21.01.2020 00:00:00 9,3 6,0 - - 16 9 - - SW 1037,8 50 0,0
20.01.2020 23:00:00 8,8 5,8 - - 13 7 - - SW 1038,1 50 0,0
20.01.2020 22:00:00 8,0 6,0 - - 9 5 46 25 WNW 1038,1 16 0,0
20.01.2020 21:00:00 7,7 5,1 - - 21 11 - - SW 1038,3 30 0,0
20.01.2020 20:00:00 7,8 5,0 - - 16 9 - - SSW 1038,7 28 0,0
20.01.2020 19:00:00 7,4 4,8 - - 18 10 - - SW 1039,1 45 0,0
20.01.2020 18:00:00 7,8 4,4 - - 15 8 - - SW 1039,2 45 0,0
20.01.2020 17:00:00 8,0 4,1 - - 18 10 46 25 SW 1039,3 50 0,0
20.01.2020 16:00:00 7,9 4,3 - - 18 10 - - WSW 1039,8 50 0,0
20.01.2020 15:00:00 8,2 4,2 - - 18 10 - - WSW 1039,9 50 0,0
20.01.2020 14:00:00 9,3 4,4 - - 9 5 - - W 1039,7 35 0,0
20.01.2020 13:00:00 9,2 4,9 - - 16 9 - - SW 1040,3 45 0,0
20.01.2020 12:00:00 8,3 5,5 - - 8 4 - - W 1040,8 40 0,0
20.01.2020 11:00:00 7,2 4,7 - - 24 13 - - SW 1041,3 50 0,0
20.01.2020 10:00:00 6,6 4,1 - - 8 4 - - NNW 1041,3 50 0,0
20.01.2020 09:00:00 7,3 3,4 3,0 3,0 16 9 - - SW 1041,2 50 0,0
20.01.2020 08:00:00 7,6 3,6 - - 18 10 - - SW 1041,2 50 0,0
20.01.2020 07:00:00 7,0 4,0 - - 15 8 - - SW 1041,1 45 0,0
20.01.2020 06:00:00 6,4 4,6 - - 8 4 - - WNW 1041,0 45 0,0
20.01.2020 05:00:00 6,2 4,6 - - 8 4 - - NNE 1041,4 45 0,0
20.01.2020 04:00:00 7,0 4,2 - - 11 6 - - WSW 1041,6 50 0,0
20.01.2020 03:00:00 6,7 4,0 - - 16 9 - - SSW 1041,7 50 0,0
20.01.2020 02:00:00 7,2 3,6 - - 24 13 - - SW 1041,8 50 0,0
20.01.2020 01:00:00 6,7 3,4 - - 16 9 - - WSW 1041,5 50 0,0
20.01.2020 00:00:00 6,9 3,5 - - 18 10 - - SW 1041,8 50 0,0
19.01.2020 23:00:00 6,9 3,5 - - 21 11 - - SW 1041,3 40 0,0
19.01.2020 22:00:00 6,7 3,3 - - 22 12 - - SW 1041,0 50 0,0
19.01.2020 21:00:00 6,6 3,2 - - 21 11 - - SW 1041,6 35 0,0
19.01.2020 20:00:00 6,3 3,1 - - 26 14 - - SW 1041,5 40 0,0
19.01.2020 19:00:00 5,8 2,6 - - 21 11 - - SSW 1042,0 35 0,0
19.01.2020 18:00:00 5,6 1,8 - - 18 10 - - SSW 1042,1 40 0,0
19.01.2020 17:00:00 5,8 1,5 - - 15 8 - - SW 1041,6 50 0,0
19.01.2020 16:00:00 5,9 1,2 - - 16 9 - - SSW 1041,3 45 0,0
19.01.2020 15:00:00 6,1 -0,3 - - 18 10 - - SW 1041,1 50 0,0
19.01.2020 14:00:00 4,3 0,9 - - 8 4 - - NW 1040,9 40 0,0
19.01.2020 13:00:00 5,7 -1,9 - - 13 7 - - SSW 1041,0 50 0,0
19.01.2020 12:00:00 5,7 -1,3 - - 13 7 - - SW 1041,3 50 0,0
19.01.2020 11:00:00 4,9 0,7 - - 18 10 - - SSW 1041,3 45 0,0
19.01.2020 10:00:00 4,3 2,1 - - 21 11 - - SSW 1041,3 40 0,0
19.01.2020 09:00:00 3,4 1,1 3,0 3,0 9 5 - - W 1041,7 45 0,2
19.01.2020 08:00:00 3,7 1,2 - - 13 7 - - WSW 1040,4 50 0,0
19.01.2020 07:00:00 0,6 0,6 - - 4 2 - - NW 1040,6 15 0,0
19.01.2020 06:00:00 -1,1 -1,2 - - 4 2 - - E 1040,6 35 0,0
19.01.2020 05:00:00 -2,8 -3,2 - - 2 1 - - S 1040,1 24 0,0
19.01.2020 04:00:00 -0,8 -1,3 - - 5 3 - - NW 1039,6 26 0,0
19.01.2020 03:00:00 -0,9 -1,2 - - 4 2 - - SE 1039,1 40 0,0
19.01.2020 02:00:00 -0,3 -0,3 - - 8 4 - - S 1038,4 40 0,0
19.01.2020 01:00:00 -2,7 -2,9 - - 4 2 - - SSE 1038,4 19 0,0
19.01.2020 00:00:00 -1,9 -2,1 - - 4 2 - - S 1038,0 22 0,0
18.01.2020 23:00:00 -0,5 -1,8 - - 4 2 - - NW 1036,8 25 0,0
18.01.2020 22:00:00 -0,7 -1,9 - - 4 2 - - W 1035,8 30 0,0
18.01.2020 21:00:00 -2,2 -2,7 - - 5 3 - - SSE 1035,3 14 0,0
18.01.2020 20:00:00 -0,5 -1,5 - - 5 3 - - ENE 1034,4 19 0,0
18.01.2020 19:00:00 0,5 -0,2 - - 4 2 - - NW 1033,5 19 0,0
18.01.2020 18:00:00 2,4 -0,1 - - 8 4 - - NW 1032,2 30 0,0
18.01.2020 17:00:00 3,2 0,1 - - 9 5 - - W 1030,9 35 0,0
18.01.2020 16:00:00 3,7 0,1 - - 16 9 - - W 1029,5 50 0,0
18.01.2020 15:00:00 4,1 -0,6 - - 18 10 - - WNW 1028,0 40 0,0
18.01.2020 14:00:00 3,7 0,1 - - 15 8 - - WNW 1027,2 28 0,0
18.01.2020 13:00:00 3,5 0,2 - - 8 4 - - NW 1026,2 35 0,0
18.01.2020 12:00:00 3,3 -0,2 - - 11 6 - - W 1025,3 45 0,0
18.01.2020 11:00:00 2,7 0,1 - - 13 7 - - W 1024,5 50 0,0
18.01.2020 10:00:00 1,5 0,8 - - 9 5 - - WNW 1023,5 10 0,4
18.01.2020 09:00:00 1,3 0,9 3,5 4,2 8 4 - - WNW 1022,3 6 0,6
18.01.2020 08:00:00 1,5 0,9 - - 8 4 - - NW 1021,3 40 0,0
18.01.2020 07:00:00 1,5 0,5 - - 8 4 - - NW 1020,2 50 1,0
18.01.2020 06:00:00 2,0 0,5 - - 8 4 - - W 1018,8 10 0,0
18.01.2020 05:00:00 1,7 0,4 - - 8 4 - - SSW 1018,2 50 0,6
18.01.2020 04:00:00 0,6 0,1 - - 5 3 - - N 1017,6 35 0,0
18.01.2020 03:00:00 0,5 0,1 - - 11 6 - - N 1017,4 40 0,4
18.01.2020 02:00:00 2,3 -0,8 - - 13 7 - - W 1016,3 6 0,8
18.01.2020 01:00:00 1,6 0,3 - - 18 10 - - NW 1015,1 7 0,2
18.01.2020 00:00:00 2,7 -0,3 - - 18 10 - - WNW 1013,3 24 0,2
17.01.2020 23:00:00 2,4 -0,3 - - 15 8 - - WNW 1012,3 21 0,4
17.01.2020 22:00:00 1,5 -0,1 - - 26 14 54 29 W 1011,4 7 0,4
17.01.2020 21:00:00 3,7 -0,4 - - 13 7 - - W 1010,1 26 0,0
17.01.2020 20:00:00 3,3 -0,2 - - 13 7 - - WNW 1009,2 24 0,0
17.01.2020 19:00:00 2,4 1,2 - - 8 4 - - WNW 1009,0 30 0,4
17.01.2020 18:00:00 3,3 1,1 - - 11 6 - - SW 1008,0 45 0,0
17.01.2020 17:00:00 3,6 1,4 - - 15 8 - - W 1006,8 14 0,4
17.01.2020 16:00:00 3,1 1,6 - - 9 5 - - NW 1005,6 25 0,2
17.01.2020 15:00:00 3,5 1,8 - - 9 5 - - W 1004,9 8 0,4
17.01.2020 14:00:00 4,7 1,4 - - 16 9 - - W 1003,8 26 0,0
17.01.2020 13:00:00 5,0 1,5 - - 13 7 50 27 SSW 1003,2 30 0,2
17.01.2020 12:00:00 3,7 2,1 - - 16 9 - - SSW 1002,9 45 0,6
17.01.2020 11:00:00 3,6 2,1 - - 22 12 - - SW 1002,2 9 0,4
17.01.2020 10:00:00 3,5 2,0 - - 21 11 - - SSW 1001,4 13 0,6
17.01.2020 09:00:00 3,6 1,2 3,7 4,0 24 13 - - SSW 1001,0 9 0,8
17.01.2020 08:00:00 3,3 1,3 - - 21 11 - - SSW 1000,9 9 0,2
17.01.2020 07:00:00 2,6 1,4 - - 22 12 - - SSW 1000,3 45 0,6
17.01.2020 06:00:00 3,9 1,2 - - 15 8 - - WSW 999,7 10 0,2
17.01.2020 05:00:00 4,5 1,3 - - 24 13 - - SSW 999,2 16 0,0
17.01.2020 04:00:00 4,4 0,6 - - 24 13 52 28 SSW 998,6 35 0,0
17.01.2020 03:00:00 4,4 1,8 - - 37 20 61 33 SSW 998,4 35 0,4
17.01.2020 02:00:00 4,8 2,0 - - 35 19 57 31 SSW 997,7 8 0,4
17.01.2020 01:00:00 4,8 2,4 - - 29 16 54 29 SSW 997,5 40 0,4
17.01.2020 00:00:00 5,1 2,8 - - 28 15 50 27 SSW 996,7 4,1 0,8
16.01.2020 23:00:00 5,2 3,6 - - 29 16 48 26 SSW 995,5 20 0,6
16.01.2020 22:00:00 5,1 3,3 - - 28 15 52 28 S 994,5 6 0,2
16.01.2020 21:00:00 5,8 1,6 - - 26 14 46 25 SSW 993,7 50 0,0
16.01.2020 20:00:00 6,8 2,4 - - 31 17 63 34 SSW 992,6 50 0,0
16.01.2020 19:00:00 6,9 5,3 - - 22 12 - - SSW 990,9 50 2,4
16.01.2020 18:00:00 5,7 4,1 - - 16 9 46 25 S 990,6 27 1,2
16.01.2020 17:00:00 4,7 3,0 - - 28 15 50 27 SSE 991,3 6 4,2
16.01.2020 16:00:00 4,5 2,9 - - 29 16 55 30 SSE 992,6 5 5,0
16.01.2020 15:00:00 5,6 3,7 - - 31 17 54 29 SSE 994,0 7 1,6
16.01.2020 14:00:00 6,9 3,3 - - 31 17 55 30 SSE 995,8 26 0,0
16.01.2020 13:00:00 6,7 3,6 - - 26 14 48 26 SSE 998,9 40 0,2
16.01.2020 12:00:00 7,0 4,8 - - 31 17 50 27 SSE 999,8 26 0,6
16.01.2020 11:00:00 7,0 5,5 - - 28 15 - - S 1001,0 9 0,6
16.01.2020 10:00:00 6,7 5,0 - - 26 14 50 27 SSE 1001,4 18 0,4
16.01.2020 09:00:00 6,2 4,6 3,4 4,0 28 15 50 27 SSE 1001,7 16 0,6
16.01.2020 08:00:00 4,2 3,4 - - 8 4 - - SSE 1003,1 17 0,4
16.01.2020 07:00:00 4,6 2,7 - - 21 11 - - SSE 1003,5 21 0,6
16.01.2020 06:00:00 3,8 2,9 - - 8 4 - - SSE 1005,1 7 0,6
16.01.2020 05:00:00 3,8 1,8 - - 5 3 - - SSW 1005,5 40 0,0
16.01.2020 04:00:00 4,2 1,4 - - 9 5 - - SW 1006,0 40 0,0
16.01.2020 03:00:00 4,2 1,4 - - 13 7 - - SW 1005,8 40 0,0
16.01.2020 02:00:00 4,4 0,9 - - 13 7 - - WSW 1004,9 35 0,0
16.01.2020 01:00:00 4,7 1,8 - - 16 9 - - SSW 1004,0 30 0,2
16.01.2020 00:00:00 3,8 2,1 - - 21 11 50 27 SW 1003,1 12 2,2
15.01.2020 23:00:00 4,2 1,1 - - 26 14 54 29 SSW 1001,7 50 0,4
15.01.2020 22:00:00 5,0 1,4 - - 24 13 48 26 SSW 1000,5 21 0,4

tt = temperature
td = dewpoint
tt -20cm = temperature -20cm
tt -100cm = temperature -100cm
ff = wind speed
fx = gusts
dd = wind direction
ppp = reduced air pressure
vv = visibility
rr = precipitation

Next stations